Погода в Кроткове

Россия / Самарская область     53°51′29″N   52°07′31″E
темп.,
°C
ветер,
м/с
пор.,
м/с
влажн.,
%
обл.,
%
осадки,
мм/ч
давл.,
гПа
погр.,
м
21 апреля, ср
ср2101:00+3юв51349100 0.0 1030412
04:00+2юв6145291 0.0 1030456
07:00+2юв71551100 0.0 1029616
10:00+6ююв9133597 0.0 1029891
13:00+9ююв91231100 0.0 10281073
16:00+9ююв81236100 0.0 10271078
19:00+8ю71342100 0.0 1027912
22:00+6ю61464100 0.9 10271053
22 апреля, чт
чт2201:00+4ююв71591100 2.8 1027843
04:00+3ююв71396100 6.0 1028713
07:00+4ююв61296100 0.8 1028747
10:00+4ююв61190100 1.6 1029513
13:00+4ююв51085100 0.2 1029583
16:00+4ююв61188100 0.8 1029605
19:00+3юв5995100 0.3 1029594
22:00+2юв4897100 1.4 1029406
23 апреля, пт
пт2301:00+2юв2598100 1.1 1029304
04:00+2юв2499100 1.3 1028214
07:00+3в1299100 0.1 1028111
10:00+5в2390100 0.1 1028291
13:00+11в4565100 0.0 1026959
16:00+13вюв4555100 0.0 10241258
19:00+10в2371100 0.0 102373
22:00+8ююв51187100 0.0 1023443
24 апреля, сб
сб2401:00+7юв4792100 0.2 1021385
04:00+7всв4795100 1.3 1019396
07:00+7в5992100 1.2 1017806
10:00+7вюв4689100 1.7 1016980
13:00+7в3488100 0.4 1015893
16:00+6в2391100 1.4 1014283
19:00+6ю1193100 0.1 101447
22:00+6ююз1193100 0.1 101416
25 апреля, вс
вс2501:00+6ю239097 0.0 101469
04:00+5юв3994100 0.0 1012283
07:00+7ю51295100 0.8 1012638
10:00+9зюз811645 1.1 10131206
13:00+12зюз7114787 0.0 10152283
16:00+10юз6106391 0.3 10151372
19:00+9юз5106892 0.7 1016587
22:00+7юз3378100 1.0 101758